EN

Hourly Weather Abla

Today, 2 December, Wednesday

Time Temperature Precipitation Wind Pressure Humidity
00:00 +3°C° 0 mm 2 mps 620 mmHg 75%
01:00 +2°C° 0 mm 2 mps 620 mmHg 71%
02:00 +2°C° 0 mm 2 mps 620 mmHg 66%
03:00 +2°C° 0 mm 2 mps 619 mmHg 62%
04:00 +2°C° 0 mm 2 mps 619 mmHg 62%
05:00 +1°C° 0 mm 2 mps 619 mmHg 61%
06:00 0°C° 0 mm 3 mps 618 mmHg 60%
07:00 +2°C° 0 mm 2 mps 619 mmHg 56%
08:00 +3°C° 0 mm 2 mps 619 mmHg 51%
09:00 +5°C° 0 mm 2 mps 620 mmHg 47%
10:00 +6°C° 0 mm 2 mps 620 mmHg 45%
11:00 +7°C° 0 mm 2 mps 620 mmHg 43%
12:00 +8°C° 0 mm 2 mps 620 mmHg 41%
13:00 +8°C° 0 mm 2 mps 620 mmHg 43%
14:00 +7°C° 0 mm 2 mps 620 mmHg 45%
15:00 +7°C° 0 mm 3 mps 619 mmHg 47%
16:00 +6°C° 0 mm 2 mps 619 mmHg 54%
17:00 +5°C° 0 mm 2 mps 619 mmHg 61%
18:00 +3°C° 0 mm 2 mps 619 mmHg 69%
19:00 +3°C° 0 mm 2 mps 619 mmHg 71%
20:00 +3°C° 0 mm 1 mps 619 mmHg 73%
21:00 +3°C° 0 mm 1 mps 619 mmHg 75%
22:00 +2°C° 0 mm 1 mps 619 mmHg 75%
23:00 +2°C° 0 mm 1 mps 619 mmHg 75%

Tomorrow, 3 December, Thursday

Time Temperature Precipitation Wind Pressure Humidity
00:00 +1°C° 0 mm 2 mps 619 mmHg 75%
01:00 +1°C° 0 mm 1 mps 619 mmHg 75%
02:00 +1°C° 0 mm 1 mps 619 mmHg 75%
03:00 0°C° 0 mm 1 mps 618 mmHg 75%
04:00 0°C° 0 mm 1 mps 618 mmHg 76%
05:00 0°C° 0 mm 1 mps 618 mmHg 77%
06:00 0°C° 0 mm 1 mps 618 mmHg 79%
07:00 +1°C° 0 mm 1 mps 618 mmHg 74%
08:00 +2°C° 0 mm 1 mps 618 mmHg 69%
09:00 +3°C° 0 mm 1 mps 619 mmHg 65%
10:00 +3°C° 0 mm 2 mps 619 mmHg 60%
11:00 +4°C° 0 mm 2 mps 619 mmHg 56%
12:00 +5°C° 0 mm 2 mps 619 mmHg 51%
13:00 +5°C° 0 mm 3 mps 619 mmHg 53%
14:00 +5°C° 0 mm 3 mps 618 mmHg 54%
15:00 +5°C° 0 mm 3 mps 617 mmHg 56%
16:00 +4°C° 0 mm 3 mps 617 mmHg 63%
17:00 +3°C° 0 mm 3 mps 616 mmHg 70%
18:00 +1°C° 0 mm 3 mps 616 mmHg 76%
19:00 +1°C° 0 mm 3 mps 615 mmHg 77%
20:00 +1°C° 0 mm 3 mps 615 mmHg 77%
21:00 0°C° 0 mm 3 mps 615 mmHg 77%
22:00 0°C° 0 mm 3 mps 614 mmHg 76%
23:00 -1°C° 0 mm 4 mps 614 mmHg 75%

Day after tomorrow, 4 December, Friday

Time Temperature Precipitation Wind Pressure Humidity
00:00 -1°C° 0 mm 4 mps 613 mmHg 74%
01:00 -1°C° 0 mm 4 mps 613 mmHg 70%
02:00 -1°C° 0 mm 4 mps 612 mmHg 66%
03:00 -1°C° 0 mm 5 mps 612 mmHg 62%
04:00 -1°C° 0 mm 5 mps 611 mmHg 65%
05:00 -2°C° 0 mm 5 mps 611 mmHg 69%
06:00 -3°C° 0 mm 6 mps 610 mmHg 72%
07:00 -3°C° 0 mm 6 mps 610 mmHg 73%
08:00 -2°C° 0 mm 7 mps 610 mmHg 73%
09:00 -1°C° 0 mm 7 mps 610 mmHg 74%
10:00 -1°C° 0.2 mm 7 mps 610 mmHg 75%
11:00 -1°C° 0.2 mm 7 mps 610 mmHg 76%
12:00 0°C° 0.2 mm 7 mps 610 mmHg 77%
13:00 -1°C° 1.1 mm 7 mps 609 mmHg 80%
14:00 -2°C° 1.1 mm 6 mps 608 mmHg 84%
15:00 -3°C° 1.1 mm 6 mps 608 mmHg 88%
16:00 -3°C° 0.5 mm 6 mps 608 mmHg 87%
17:00 -4°C° 0.5 mm 6 mps 608 mmHg 86%
18:00 -5°C° 0.5 mm 6 mps 607 mmHg 86%
19:00 -5°C° 0.3 mm 6 mps 607 mmHg 84%
20:00 -6°C° 0.3 mm 6 mps 607 mmHg 82%
21:00 -6°C° 0.3 mm 5 mps 607 mmHg 81%
22:00 -8°C° 0.1 mm 6 mps 608 mmHg 81%
23:00 -8°C° 0.1 mm 6 mps 608 mmHg 81%

5 December, Saturday

Time Temperature Precipitation Wind Pressure Humidity
00:00 -8°C° 0.1 mm 6 mps 608 mmHg 82%
01:00 -8°C° 0.1 mm 6 mps 608 mmHg 81%
02:00 -8°C° 0.1 mm 6 mps 608 mmHg 80%
03:00 -9°C° 0.1 mm 6 mps 608 mmHg 79%
04:00 -9°C° 0 mm 6 mps 608 mmHg 79%
05:00 -9°C° 0 mm 6 mps 608 mmHg 78%
06:00 -9°C° 0 mm 6 mps 608 mmHg 78%
07:00 -9°C° 0 mm 6 mps 609 mmHg 75%
08:00 -8°C° 0 mm 6 mps 610 mmHg 72%
09:00 -8°C° 0 mm 6 mps 610 mmHg 69%
10:00 -6°C° 0 mm 6 mps 611 mmHg 63%
11:00 -6°C° 0 mm 7 mps 611 mmHg 57%
12:00 -4°C° 0 mm 7 mps 612 mmHg 51%
13:00 -4°C° 0 mm 7 mps 612 mmHg 54%
14:00 -4°C° 0 mm 7 mps 612 mmHg 56%
15:00 -4°C° 0 mm 7 mps 612 mmHg 58%
16:00 -5°C° 0 mm 6 mps 612 mmHg 64%
17:00 -6°C° 0 mm 6 mps 612 mmHg 70%
18:00 -7°C° 0 mm 5 mps 612 mmHg 76%
19:00 -7°C° 0 mm 5 mps 613 mmHg 77%
20:00 -7°C° 0 mm 5 mps 613 mmHg 77%
21:00 -7°C° 0 mm 4 mps 613 mmHg 78%
22:00 -7°C° 0 mm 4 mps 613 mmHg 77%
23:00 -8°C° 0 mm 4 mps 613 mmHg 77%

6 December, Sunday

Time Temperature Precipitation Wind Pressure Humidity
00:00 -8°C° 0 mm 4 mps 614 mmHg 76%
01:00 -8°C° 0 mm 4 mps 613 mmHg 73%
02:00 -8°C° 0 mm 4 mps 613 mmHg 69%
03:00 -8°C° 0 mm 4 mps 613 mmHg 66%
04:00 -8°C° 0 mm 4 mps 613 mmHg 64%
05:00 -8°C° 0 mm 4 mps 613 mmHg 63%
06:00 -8°C° 0 mm 4 mps 613 mmHg 61%
07:00 -7°C° 0 mm 4 mps 614 mmHg 61%
08:00 -5°C° 0 mm 4 mps 615 mmHg 62%
09:00 -5°C° 0 mm 5 mps 616 mmHg 62%
10:00 -4°C° 0 mm 5 mps 616 mmHg 60%
11:00 -4°C° 0 mm 5 mps 616 mmHg 58%
12:00 -2°C° 0 mm 5 mps 617 mmHg 56%
13:00 -2°C° 0 mm 5 mps 616 mmHg 58%
14:00 -2°C° 0 mm 5 mps 616 mmHg 61%
15:00 -2°C° 0 mm 5 mps 616 mmHg 63%
16:00 -2°C° 0 mm 5 mps 616 mmHg 68%
17:00 -3°C° 0 mm 4 mps 615 mmHg 72%
18:00 -4°C° 0 mm 4 mps 615 mmHg 77%
19:00 -4°C° 0 mm 4 mps 615 mmHg 77%
20:00 -4°C° 0 mm 5 mps 616 mmHg 78%
21:00 -4°C° 0 mm 5 mps 616 mmHg 78%
22:00 -4°C° 0 mm 5 mps 616 mmHg 80%
23:00 -4°C° 0 mm 6 mps 615 mmHg 81%

7 December, Monday

Time Temperature Precipitation Wind Pressure Humidity
00:00 -3°C° 0 mm 6 mps 615 mmHg 83%
01:00 -3°C° 0 mm 6 mps 615 mmHg 83%
02:00 -3°C° 0 mm 6 mps 614 mmHg 84%
03:00 -3°C° 0 mm 6 mps 614 mmHg 84%
04:00 -3°C° 0.2 mm 6 mps 614 mmHg 85%
05:00 -3°C° 0.2 mm 6 mps 614 mmHg 86%
06:00 -3°C° 0.2 mm 6 mps 614 mmHg 87%
07:00 -2°C° 0.6 mm 6 mps 614 mmHg 88%
08:00 -1°C° 0.6 mm 5 mps 615 mmHg 89%
09:00 0°C° 0.6 mm 4 mps 615 mmHg 90%
10:00 +1°C° 0.1 mm 5 mps 616 mmHg 85%
11:00 +2°C° 0.1 mm 6 mps 617 mmHg 81%
12:00 +3°C° 0.1 mm 6 mps 617 mmHg 77%
13:00 +3°C° 0 mm 6 mps 617 mmHg 74%
14:00 +3°C° 0 mm 6 mps 617 mmHg 71%
15:00 +3°C° 0 mm 5 mps 617 mmHg 68%
16:00 +2°C° 0 mm 5 mps 617 mmHg 72%
17:00 +1°C° 0 mm 4 mps 617 mmHg 76%
18:00 0°C° 0 mm 4 mps 617 mmHg 80%
19:00 +1°C° 0 mm 3 mps 617 mmHg 80%
20:00 +1°C° 0 mm 3 mps 618 mmHg 80%
21:00 0°C° 0 mm 3 mps 618 mmHg 80%
22:00 0°C° 0 mm 3 mps 618 mmHg 80%
23:00 0°C° 0 mm 3 mps 618 mmHg 80%
Show more